TimeMDT,TemperatureF,Dew PointF,Humidity,Sea Level PressureIn,VisibilityMPH,Wind Direction,Wind SpeedMPH,Gust SpeedMPH,PrecipitationIn,Events,Conditions,WindDirDegrees,DateUTC
12:55 AM,42.8,28.4,57,30.02,10.0,SSW,9.2,-,N/A,,Partly Cloudy,200,2012-10-29 06:55:00
1:55 AM,42.8,28.4,57,30.01,10.0,South,11.5,-,N/A,,Partly Cloudy,190,2012-10-29 07:55:00
2:55 AM,42.8,26.6,53,30.02,10.0,South,10.4,-,N/A,,Partly Cloudy,180,2012-10-29 08:55:00
3:55 AM,42.8,26.6,53,30.01,10.0,South,10.4,-,N/A,,Partly Cloudy,180,2012-10-29 09:55:00
4:55 AM,42.8,26.6,53,30.03,10.0,South,10.4,-,N/A,,Partly Cloudy,180,2012-10-29 10:55:00
5:55 AM,42.8,28.4,57,30.05,10.0,South,10.4,-,N/A,,Scattered Clouds,170,2012-10-29 11:55:00
6:55 AM,42.8,28.4,57,30.05,10.0,South,8.1,-,N/A,,Mostly Cloudy,190,2012-10-29 12:55:00
7:55 AM,46.4,30.2,53,30.06,70.0,South,8.1,-,N/A,,Mostly Cloudy,180,2012-10-29 13:55:00
8:55 AM,48.2,32.0,54,30.09,70.0,SSW,11.5,-,N/A,,Mostly Cloudy,210,2012-10-29 14:55:00
9:55 AM,55.4,32.0,41,30.06,70.0,SSW,8.1,-,N/A,,Scattered Clouds,200,2012-10-29 15:55:00
10:55 AM,60.8,28.4,29,30.05,70.0,SSW,9.2,-,N/A,,Scattered Clouds,210,2012-10-29 16:55:00
11:55 AM,62.6,30.2,30,30.04,70.0,WSW,5.8,-,N/A,,Scattered Clouds,250,2012-10-29 17:55:00
12:55 PM,64.4,30.2,28,30.02,70.0,WSW,5.8,-,N/A,,Mostly Cloudy,240,2012-10-29 18:55:00
1:55 PM,64.4,32.0,30,30.00,70.0,West,6.9,-,N/A,,Mostly Cloudy,270,2012-10-29 19:55:00
2:55 PM,64.4,32.0,30,29.99,70.0,NNW,11.5,-,N/A,,Mostly Cloudy,330,2012-10-29 20:55:00
3:55 PM,60.8,32.0,34,30.01,70.0,NNW,5.8,-,N/A,,Mostly Cloudy,330,2012-10-29 21:55:00
4:55 PM,59.0,35.6,42,30.01,70.0,ESE,4.6,-,N/A,,Mostly Cloudy,110,2012-10-29 22:55:00
5:55 PM,55.4,35.6,47,30.02,25.0,ESE,5.8,-,N/A,,Mostly Cloudy,120,2012-10-29 23:55:00
6:55 PM,50.0,33.8,54,30.06,25.0,South,6.9,-,N/A,,Mostly Cloudy,170,2012-10-30 00:55:00
7:55 PM,50.0,32.0,50,30.06,25.0,South,8.1,-,N/A,,Scattered Clouds,180,2012-10-30 01:55:00
8:55 PM,48.2,32.0,54,30.06,25.0,SSW,6.9,-,N/A,,Scattered Clouds,200,2012-10-30 02:55:00
9:55 PM,46.4,32.0,57,30.04,25.0,South,12.7,-,N/A,,Partly Cloudy,180,2012-10-30 03:55:00
10:55 PM,46.4,32.0,57,30.03,25.0,South,11.5,-,N/A,,Partly Cloudy,180,2012-10-30 04:55:00
11:55 PM,44.6,32.0,61,30.03,25.0,South,10.4,-,N/A,,Partly Cloudy,190,2012-10-30 05:55:00